Dewpoint
-10 -9 -10 -10 -10 -10 -10 -10 -10 -10 -10 -9 -9 -8 -9 -9 -8 -8 -8 -6 -6 -5 -3 -2 -1 1 3 5 9 12 13 14 13 12 12 12 11 11 12 12 11 9 8 8 8 7 7 7 7 8 11 12 13 11 14 20 14 13 14 13 13 12 17
-9 -9 -10 -10 -11 -10 -10 -9 -9 -10 -10 -9 -9 -10 -10 -10 -8 -8 -8 -7 -7 -6 -3 -3 -2 -2 -0 2 5 10 12 14 14 14 12 11 12 11 12 11 11 10 9 8 8 8 8 8 6 6 10 10 11 11 11 12 14 11 11 10 10 9 8
-9 -10 -10 -10 -10 -10 -10 -10 -10 -10 -10 -10 -10 -10 -10 -9 -8 -8 -7 -6 -5 -5 -4 -3 -2 -2 -1 -0 1 4 8 12 14 14 14 13 12 12 11 11 11 10 9 9 8 8 8 8 7 6 7 9 9 10 10 9 11 11 10 8 7 7 7
-10 -11 -11 -11 -11 -11 -11 -11 -10 -10 -10 -10 -10 -10 -9 -8 -7 -7 -7 -6 -5 -4 -3 -2 -1 -1 -0 0 -0 2 3 6 11 14 14 13 13 12 11 10 10 10 10 9 8 8 8 8 8 8 7 7 8 9 9 9 11 10 9 8 7 6 6
-11 -11 -11 -11 -11 -12 -12 -11 -11 -11 -11 -11 -11 -11 -10 -8 -8 -8 -7 -7 -7 -5 -6 -5 -5 -4 -2 -1 -0 -0 -0 0 4 11 14 13 13 12 11 11 10 10 11 10 9 8 8 9 9 9 8 8 7 7 8 9 9 9 9 9 9 8 7
-11 -11 -11 -12 -12 -12 -12 -12 -12 -12 -12 -12 -12 -12 -10 -9 -8 -9 -8 -8 -8 -7 -7 -7 -7 -6 -5 -4 -4 -3 -2 1 2 5 10 14 13 13 12 11 11 10 10 10 9 9 8 9 9 9 9 9 8 7 7 8 8 6 6 8 7 8 8
-11 -11 -12 -12 -12 -12 -12 -12 -12 -11 -12 -11 -11 -10 -10 -9 -9 -9 -9 -8 -8 -7 -6 -6 -5 -5 -4 -4 -3 -2 -2 -0 0 3 6 12 14 13 13 12 11 11 11 10 10 10 9 9 10 9 9 9 9 8 8 7 8 7 7 6 7 7 8
-11 -12 -12 -13 -13 -12 -12 -11 -11 -11 -10 -10 -10 -9 -10 -9 -9 -9 -8 -7 -7 -5 -4 -4 -3 -2 -2 -1 -0 -0 -0 0 1 2 3 7 13 14 13 12 12 12 11 10 10 9 9 9 9 10 10 10 9 8 8 8 7 7 7 7 8 7 8
-12 -12 -12 -13 -13 -12 -11 -11 -11 -11 -11 -11 -10 -8 -8 -7 -6 -5 -5 -4 -4 -3 -2 -2 -0 1 2 3 4 5 5 6 7 6 7 8 9 13 13 12 12 11 10 10 10 10 10 10 10 10 10 10 9 8 7 8 8 8 8 9 8 9 9
-11 -11 -12 -12 -12 -12 -12 -12 -12 -9 4 8 -0 -0 0 1 1 1 1 1 -0 -0 1 1 2 3 3 3 4 4 5 7 8 9 7 6 9 11 13 11 11 11 10 10 10 10 10 10 10 10 10 9 9 9 8 8 7 6 7 6 7 8 9
-13 -13 -13 -13 -13 -13 -13 -13 -12 4 8 10 13 6 2 2 1 1 1 -0 -0 -0 0 1 2 3 4 4 4 4 5 6 6 8 9 10 11 11 12 12 10 11 11 10 10 10 10 10 10 10 10 10 9 9 8 8 7 7 7 6 5 4 4
-13 -13 -13 -13 -14 -14 -13 -13 -3 8 9 11 12 4 -3 -2 -1 -2 -2 -1 -2 -1 -1 -1 -0 0 1 2 3 4 4 5 7 8 8 9 11 13 16 15 13 11 10 10 9 9 10 10 10 10 11 11 11 9 9 9 8 8 7 6 6 6 5
-14 -14 -14 -14 -14 -14 -14 -13 2 7 10 9 7 7 1 -3 -2 -1 -2 -1 -1 -1 -0 0 1 2 2 3 5 5 6 7 7 9 9 9 10 11 14 17 17 17 12 11 10 9 9 10 10 11 11 12 11 11 9 8 8 8 8 7 6 6 5
-15 -14 -15 -15 -15 -14 -14 -14 -0 7 10 2 7 7 7 -1 -1 -0 -1 -1 -1 -0 1 1 1 2 2 4 5 6 6 7 7 8 8 8 9 9 11 13 17 15 16 15 11 10 9 11 12 11 12 12 14 11 9 8 8 8 8 7 7 7 7
-16 -15 -15 -15 -15 -15 -15 -14 4 9 7 6 8 8 10 0 1 0 -1 -1 -1 -1 0 1 1 2 3 3 4 5 7 6 7 7 8 8 9 9 10 11 11 12 13 14 15 13 12 12 13 13 12 13 13 12 11 11 10 9 9 9 8 8 6
-15 -15 -16 -15 -15 -15 -15 -14 6 8 4 3 11 10 1 0 1 0 -0 -1 -1 -1 0 1 2 2 3 3 4 6 11 10 7 7 7 7 8 9 10 10 15 16 16 14 14 15 16 14 14 17 13 13 13 13 13 12 11 10 9 8 6 6 3
-16 -15 -15 -15 -15 -15 -15 -14 -2 8 8 1 11 9 1 1 1 1 0 -1 -1 -0 1 1 2 2 3 3 3 6 12 13 12 8 8 8 8 9 9 10 11 16 20 20 20 20 21 21 20 20 20 20 19 15 13 11 10 8 9 7 6 6 2
-16 -16 -15 -15 -15 -15 -15 -14 -3 8 10 8 5 6 0 2 1 0 0 0 0 0 1 1 4 4 3 4 4 12 13 14 10 8 9 10 9 8 8 9 10 11 13 18 19 20 20 21 21 20 21 21 21 20 18 11 9 8 8 7 7 5 4
-17 -17 -16 -15 -15 -12 -12 -12 -5 7 10 13 12 6 2 1 0 1 1 1 1 1 1 2 4 5 6 6 8 14 15 15 11 8 9 10 10 9 8 9 11 11 11 12 13 15 16 17 19 18 17 18 19 19 19 12 11 10 9 8 7 6 1
-17 -17 -17 -15 -15 -14 -13 -12 -11 -6 10 10 8 7 -0 2 3 3 3 3 2 1 1 2 2 4 8 13 12 14 15 13 13 9 10 11 10 9 9 11 12 12 12 11 12 12 12 13 14 17 17 17 18 18 18 14 13 11 9 8 7 7 6
-18 -18 -17 -15 -14 -13 -12 -11 -9 -6 10 12 10 7 10 3 4 5 4 4 3 2 2 2 2 2 5 10 13 15 16 15 16 14 12 11 10 11 11 13 11 12 14 10 10 11 11 12 13 12 14 16 17 17 18 16 13 12 11 9 8 7 7
-18 -18 -17 -15 -14 -12 -11 -9 -6 -6 5 11 8 7 13 6 5 7 7 5 4 3 3 2 2 3 5 8 14 15 16 17 17 17 13 13 18 18 18 14 11 10 11 10 10 9 9 9 10 10 12 13 15 16 17 16 13 13 12 11 10 8 7
-19 -18 -16 -15 -13 -12 -10 -8 -7 -3 -3 5 11 11 12 12 10 14 6 5 4 4 3 3 4 5 8 11 14 15 17 16 17 15 14 19 18 18 17 14 10 10 10 10 9 8 7 7 7 8 9 10 11 14 16 15 14 13 12 12 12 12 12
-18 -16 -16 -15 -14 -12 -10 -8 -7 -3 -0 1 9 11 10 13 15 11 7 7 6 5 5 4 4 6 12 13 15 16 16 15 15 15 17 18 17 14 15 13 10 9 9 9 8 7 6 5 6 8 8 9 11 13 16 16 15 14 13 13 12 13 13
-16 -15 -15 -14 -13 -12 -10 -8 -6 -4 -1 1 2 12 15 14 12 10 8 6 5 6 4 8 12 12 12 14 15 15 15 15 15 16 16 15 14 15 13 11 9 8 7 7 6 6 6 6 7 7 8 10 12 15 17 17 15 14 14 13 13 13 14
-15 -15 -14 -13 -12 -11 -9 -7 -6 -4 -3 -0 2 4 10 14 12 11 10 8 7 9 8 9 10 10 9 11 12 13 12 12 13 15 16 15 14 13 13 10 9 8 7 6 6 6 6 6 7 8 9 11 12 12 15 16 15 15 14 14 13 13 13
-15 -14 -13 -13 -11 -10 -9 -7 -5 -5 -3 -1 0 1 5 8 6 8 9 6 3 5 2 3 5 6 8 11 12 12 13 14 14 12 12 13 14 14 12 10 9 7 7 6 6 7 7 7 8 9 9 9 11 11 12 16 15 15 14 15 14 13 13
-15 -14 -13 -12 -10 -9 -9 -8 -7 -4 -2 -0 1 3 6 7 4 1 0 0 -1 -4 -1 1 6 8 10 10 10 10 10 10 10 10 11 11 12 13 12 12 12 11 8 7 7 7 8 8 8 8 8 9 9 10 11 14 15 14 15 15 15 14 12
-13 -11 -10 -9 -9 -8 -10 -10 -7 -4 2 -1 4 4 5 6 3 2 1 4 7 5 4 5 7 8 6 6 8 7 4 5 6 6 6 9 9 10 12 12 11 9 8 8 8 7 7 7 8 8 9 9 9 9 10 13 14 15 14 15 15 13 12
-15 -11 -9 -10 -10 -9 -9 -8 -6 1 4 9 3 8 6 5 11 12 6 9 8 9 6 7 6 6 6 5 4 4 4 4 3 4 4 6 11 9 9 11 11 10 9 9 8 8 8 8 8 8 9 9 8 9 10 12 13 13 15 14 14 13 12
-2 -0 -9 -10 -11 -8 -5 -3 -2 0 2 7 8 8 10 11 11 10 8 7 2 -1 0 4 4 4 4 4 3 4 3 5 6 6 5 5 6 7 10 11 11 11 11 10 9 9 8 9 8 8 10 9 8 8 9 10 12 12 14 14 14 13 13
-4 -4 -7 -10 -11 -10 -10 -6 -2 -0 3 4 8 5 10 11 11 10 9 3 1 -5 -5 -4 -3 -2 -1 2 3 5 5 4 4 5 6 5 5 6 9 10 10 12 12 10 10 9 9 9 9 9 11 10 9 9 9 9 10 11 12 13 14 13 13
-0 -1 -3 -5 -4 -7 -6 -10 -2 1 9 6 5 9 3 6 7 8 5 -2 -8 -9 -9 -8 -7 -6 -5 -4 -3 -1 2 5 5 5 6 7 8 8 8 10 11 12 12 12 11 10 10 10 11 11 10 11 9 9 9 9 9 10 11 12 12 13 13
-3 -3 -7 -1 2 2 -2 5 6 7 8 9 9 8 5 -1 -4 6 7 -4 -11 -11 -11 -10 -10 -9 -8 -7 -5 -4 -2 -1 2 6 8 9 9 10 10 10 12 12 12 13 13 12 11 11 11 12 11 12 11 13 11 10 10 10 11 11 12 12 13
-23 -17 -14 -16 -14 -10 -7 -5 -4 -2 1 2 2 1 0 -0 -15 -16 -15 -14 -12 -12 -12 -12 -11 -11 -10 -9 -8 -6 -5 -4 -3 -1 3 6 8 9 10 11 12 12 12 13 13 13 13 12 12 13 13 12 11 13 12 12 12 12 11 11 12 12 13
-24 -22 -17 -15 -15 -14 -9 -7 -6 -4 -1 5 6 3 -7 -17 -17 -17 -16 -15 -14 -13 -13 -12 -11 -11 -11 -11 -10 -9 -7 -5 -4 -3 -1 4 8 8 10 12 12 12 12 12 13 13 14 14 14 15 14 13 13 13 13 13 13 13 13 14 14 13 14